User: anonymous
Location: Unspecified
(0.0000°N, 0.0000°E)
Time: 23:34:48
(UTC+00:00)
Language:

OPTUS D2 - Orbit

View from above orbital plane
View from above orbital plane
View from above satellite
View from above satellite

Ground track
Ground track

The orbit data is extracted from the following two-line orbital elements,

1 32252U 07044A   14244.56796300 -.00000195  00000-0  00000+0 0  4978
2 32252 000.0443 283.7616 0003163 239.9385 173.4265 01.00272420 25296
Epoch (UTC): 01 September 2014 13:37:52
Eccentricity: 0.0003163
inclination: 0.0443°
perigee height: 35773 km
apogee height: 35799 km
right ascension of ascending node: 283.7616°
argument of perigee: 239.9385°
revolutions per day: 1.00272420
mean anomaly at epoch: 173.4265°
orbit number at epoch: 2529

The dashed part of the orbit path shows where the satellite is in the earth's shadow,  

DLR